Location: Ammerl�gen
(47.2167°N, 9.6000°E)
Time: 10:58:31
(UTC+00:00)

CZ-4 R/B DEB - Pass Details

Date: 17 October 2021
Orbit: 738 x 791 km, 98.5° (Epoch: 26 November)

Event Time Altitude Azimuth Distance (km) Brightness Sun altitude
Exits shadow 18:16:26 36° 109° (ESE) 1,174 ? -18.8°
Maximum altitude 18:17:49 44° 68° (ENE) 1,015 ? -19.0°
Drops below altitude 10° 18:22:30 10° 357° (N) 2,258 ? -19.8°
Sets 18:24:52 0° 352° (N) 3,186 ? -20.2°
